Weather History for Tacoma Narrows, WA

Change the Weather History Date:

Tuesday, April 29, 2014

  Actual Average Record
Temperature  
Mean Temperature 60 °F -  
Max Temperature 73 °F 58 °F 73 °F (1998)
Min Temperature 48 °F 43 °F 37 °F (2011)
Degree Days  
Heating Degree Days 4    
Growing Degree Days 10 (Base 50)    
Moisture  
Dew Point 38 °F    
Average Humidity 47    
Maximum Humidity 80    
Minimum Humidity 23    
Precipitation  
Precipitation 0.00 in - - ()
Sea Level Pressure  
Sea Level Pressure 30.43 in    
Wind  
Wind Speed 3 mph (North)    
Max Wind Speed 14 mph    
Max Gust Speed -    
Visibility 10 miles    
Events      
Averages and records for this station are not official NWS values.
T = Trace of Precipitation, MM = Missing Value Source: NWS Daily Summary

Daily Weather History Graph

Daily Weather History Graph

Search for Another Location

Airport:

Trip Planner

Search our weather history database for the weather conditions in past years. The results will help you decide how hot, cold, wet, or windy it might be!

Date:

Astronomy

Apr. 29, 2014 Rise Set
Actual Time 5:57 AM PDT 8:19 PM PDT
Civil Twilight 5:23 AM PDT 8:52 PM PDT
Nautical Twilight 4:41 AM PDT 9:35 PM PDT
Astronomical Twilight 3:53 AM PDT 10:23 PM PDT
Moon 6:19 AM PDT (4/29) 9:06 PM PDT (4/29)
Length of Visible Light 15h 29m
Length of Day
14h 21m
New Moon, 0% of the Moon is Illuminated
Apr 29
New Moon
May 6
First Quarter
May 14
Full
May 21
Last Quarter
May 28
New

Hourly Weather History & Observations

Time (PDT) Temp. Dew Point Humidity Pressure Visibility Wind Dir Wind Speed Gust Speed Precip Events Conditions
12:53 AM 51.1 °F 37.0 °F 59% 30.39 in 10.0 mi Calm Calm - N/A   Overcast
1:53 AM 48.9 °F 39.9 °F 71% 30.40 in 10.0 mi Calm Calm - N/A   Overcast
2:53 AM 48.0 °F 39.0 °F 71% 30.42 in 10.0 mi Calm Calm - N/A   Overcast
3:53 AM 48.9 °F 39.9 °F 71% 30.43 in 10.0 mi Calm Calm - N/A   Overcast
4:53 AM 48.9 °F 39.0 °F 69% 30.44 in 10.0 mi Calm Calm - N/A   Overcast
5:53 AM 48.0 °F 41.0 °F 77% 30.45 in 10.0 mi Calm Calm - N/A   Overcast
6:53 AM 50.0 °F 39.0 °F 66% 30.46 in 10.0 mi Calm Calm - N/A   Overcast
7:53 AM 50.0 °F 44.1 °F 80% 30.48 in 10.0 mi Calm Calm - N/A   Mostly Cloudy
8:53 AM 54.0 °F 44.1 °F 69% 30.49 in 10.0 mi Calm Calm - N/A   Mostly Cloudy
9:53 AM 57.9 °F 42.1 °F 56% 30.50 in 10.0 mi Calm Calm - N/A   Mostly Cloudy
10:53 AM 62.1 °F 37.9 °F 41% 30.48 in 10.0 mi ENE 3.5 mph - N/A   Clear
11:53 AM 64.9 °F 36.0 °F 34% 30.48 in 10.0 mi North 8.1 mph - N/A   Clear
12:53 PM 66.9 °F 33.1 °F 28% 30.47 in 10.0 mi North 9.2 mph - N/A   Clear
1:53 PM 69.8 °F 35.6 °F 28% 30.46 in 10.0 mi North 8.1 mph - N/A   Clear
2:53 PM 71.6 °F 37.4 °F 29% 30.44 in 10.0 mi North 9.2 mph - N/A   Clear
3:53 PM 72.0 °F 37.9 °F 29% 30.42 in 10.0 mi North 11.5 mph - N/A   Clear
4:53 PM 73.0 °F 33.1 °F 23% 30.40 in 10.0 mi North 11.5 mph - N/A   Clear
5:53 PM 73.0 °F 33.1 °F 23% 30.38 in 10.0 mi North 9.2 mph - N/A   Clear
6:53 PM 71.1 °F 32.0 °F 24% 30.36 in 10.0 mi North 12.7 mph - N/A   Clear
7:53 PM 68.0 °F 34.0 °F 28% 30.36 in 10.0 mi North 13.8 mph - N/A   Clear
8:53 PM 64.9 °F 36.0 °F 34% 30.37 in 10.0 mi North 12.7 mph - N/A   Clear
9:53 PM 63.0 °F 37.0 °F 38% 30.38 in 10.0 mi NNE 5.8 mph - N/A   Clear
10:53 PM 62.1 °F 36.0 °F 38% 30.39 in 10.0 mi North 5.8 mph - N/A   Clear
11:53 PM 60.1 °F 37.9 °F 44% 30.39 in 10.0 mi North 6.9 mph - N/A   Clear